EHI
0 0 0 0 0 0 0 0 0 0 0 0 0 0 0 0 0 0 0 0 0 0 0 0 0 0 0 0 0 0 0 0 0 0 0 0 0 0 0 0 0 0 0
0 0 0 0 0 0 0 0 0 0 0 0 0 0 0 0 0 0 0 0 0 0 0 0 0 0 0 0 0 0 0 0 0 0 0 0 0 0 0 0 0 0 0
0 0 0 0 0 0 0 0 0 0 0 0 0 0 0 0 0 0 0 0 0 0 0 0 0 0 0 0 0 0 0 0 0 0 0 0 0 0 0 0 0 0 0
0 0 0 0 0 0 0 0 0 0 0 0 0 0 0 0 0 0 0 0 0 0 0 0 0 0 0 0 0 0 0 0 0 0 0 0 0 0 0 0 0 0 0
0 0 0 0 0 0 0 0 0 0 0 0 0 0 0 0 0 0 0 0 0 0 0 0 0 0 0 0 0 0 0 0 0 0 0 0 0 0 0 0 0 0 0
0 0 0 0 0 0 0 0 0 0 0 0 0 0 0 0 0 0 0 0 0 0 0 0 0 0 0 0 0 0 0 0 0 0 0 0 0 0 0 0 0 0 0
0 0 0 0 0 0 0 0 0 0 0 0 0 0 0 0 0 0 0 0 0 0 0 0 0 0 0 0 0 0 0 0 0 0 0 0 0 0 0 0 0 0 0
0 0 0 0 0 0 0 0 0 0 0 0 0 0 0 0 0 0 0 0 0 0 0 0 0 0 0 0 0 0 0 0 0 0 0 0 0 0 0 0 0 0 0
0 0 0 0 0 0 0 0 0 0 0 0 0 0 0 0 0 0 0 0 0 0 0 0 0 0 0 0 0 0 0 0 0 0 0 0 0 0 0 0 0 0 0
0 0 0 0 0 0 0 0 0 0 0 0 0 0 0 0 0 0 0 0 0 0 0 0 0 0 0 0 0 0 0 0 0 0 0 0 0 0 0 0 0 0 0
0 0 0 0 0 0 0 0 0 0 0 0 0 0 0 0 0 0 0 0 0 0 0 0 0 0 0 0 0 0 0 0 0 0 0 0 0 0 0 0 0 0 0
0 0 0 0 0 0 0 0 0 0 0 0 0 0 0 0 0 0 0 0 0 0 0 0 0 0 0 0 0 0 0 0 0 0 0 0 0 0 0 0 0 0 0
0 0 0 0 0 0 0 0 0 0 0 0 0 0 0 0 0 0 0 0 0 0 0 0 0 0 0 0 0 0 0 0 0 0 0 0 0 0 0 0 0 0 0
0 0 0 0 0 0 0 0 0 0 0 0 0 0 0 0 0 0 0 0 0 0 0 0 0 0 0 0 0 0 0 0 0 0 0 0 0 0 0 0 0 0 0
0 0 0 0 0 0 0 0 0 0 0 0 0 0 0 0 0 0 0 0 0 0 0 0 0 0 0 0 0 0 0 0 0 0 0 0 0 0 0 0 0 0 0
0 0 0 0 0 0 0 0 0 0 0 0 0 0 0 0 0 0 0 0 0 0 0 0 0 0 0 0 0 0 0 0 0 0 0 0 0 0 0 0 0 0 0
0 0 0 0 0 0 0 0 0 0 0 0 0 0 0 0 0 0 0 0 0 0 0 0 0 0 0 0 0 0 0 0 0 0 0 0 0 0 0 0 0 0 0
0 0 0 0 0 0 0 0 0 0 0 0 0 0 0 0 0 0 0 0 0 0 0 0 0 0 0 0 0 0 0 0 0 0 0 0 0 0 0 0 0 0 0
0 0 0 0 0 0 0 0 0 0 0 0 0 0 0 0 0 0 0 0 0 0 0 0 0 0 0 0 0 0 0 0 0 0 0 0 0 0 0 0 0 0 0
0 0 0 0 0 0 0 0 0 0 0 0 0 0 0 0 0 0 0 0 0 0 0 0 0 0 0 0 0 0 0 0 0 0 0 0 0 0 0 0 0 0 0
0 0 0 0 0 0 0 0 0 0 0 0 0 0 0 0 0 0 0 0 0 0 0 0 0 0 0 0 0 0 0 0 0 0 0 0 0 0 0 0 0 0 0
0 0 0 0 0 0 0 0 0 0 0 0 0 0 0 0 0 0 0 0 0 0 0 0 0 0 0 0 0 0 0 0 0 0 0 0 0 0 0 0 0 0 0
0 0 0 0 0 0 0 0 0 0 0 0 0 0 0 0 0 0 0 0 0 0 0 0 0 0 0 0 0 0 0 0 0 0 0 0 0 0 0 0 0 0 0
0 0 0 0 0 0 0 0 0 0 0 0 0 0 0 0 0 0 0 0 0 0 0 0 0 0 0 0 0 0 0 0 0 0 0 0 0 0 0 0 0 0 0
0 0 0 0 0 0 0 0 0 0 0 0 0 0 0 0 0 0 0 0 0 0 0 0 0 0 0 0 0 0 0 0 0 0 0 0 0 0 0 0 0 0 0
0 0 0 0 0 0 0 0 0 0 0 0 0 0 0 0 0 0 0 0 0 0 0 0 0 0 0 0 0 0 0 0 0 0 0 0 0 0 0 0 0 0 0
Wind_Speed
9 9 7 7 7 7 7 6 6 7 6 6 5 5 4 4 3 3 3 5 4 4 3 3 2 2 3 3 4 4 5 6 7 8 9 9 10 11 11 12 13 13 14
9 9 8 7 7 7 7 6 7 6 5 4 5 4 4 3 3 3 2 4 4 4 3 3 2 2 2 3 3 4 5 6 7 8 9 10 11 12 12 13 14 15 15
11 9 8 8 7 8 8 6 7 5 5 4 5 4 3 2 2 3 2 1 2 3 3 3 2 2 2 3 4 4 5 7 8 9 10 11 12 13 14 14 15 16 16
12 10 8 8 8 7 7 6 6 6 5 4 4 3 2 2 3 2 2 2 1 1 3 3 3 3 3 3 4 5 6 7 8 9 10 11 12 13 14 15 16 17 17
13 10 9 8 9 7 7 7 6 6 5 4 3 3 2 2 2 3 3 3 2 1 1 2 1 2 4 4 5 6 6 7 9 10 11 12 13 14 15 16 17 17 18
14 11 9 10 10 8 7 8 8 6 5 4 3 3 2 2 2 3 3 3 2 2 2 2 2 1 1 4 5 6 8 8 10 11 12 13 14 15 16 17 17 18 19
14 12 9 11 10 9 9 10 8 8 6 4 4 3 3 4 4 3 3 3 3 3 3 2 2 2 1 2 4 7 8 10 11 12 12 13 14 15 16 17 18 18 19
15 12 13 11 11 9 11 10 9 7 5 5 4 3 3 5 4 4 3 3 4 3 3 3 3 2 2 2 1 5 9 10 12 12 13 14 15 16 17 17 18 19 19
16 14 14 12 12 11 10 11 11 10 7 6 5 4 3 3 3 4 4 4 4 3 3 3 3 2 3 2 2 3 7 10 12 13 13 14 15 16 17 17 18 19 19
16 16 15 14 13 11 11 12 11 9 9 7 6 4 3 1 2 2 4 4 3 3 3 2 3 2 2 2 2 5 7 9 11 12 13 14 15 16 17 17 18 19 19
16 16 16 14 14 12 12 12 12 11 9 8 6 5 4 3 4 3 3 3 3 3 3 3 2 2 2 2 2 4 7 8 10 11 12 13 14 16 17 18 18 19 19
13 17 16 15 14 12 13 12 12 13 10 10 7 6 5 4 4 4 4 4 3 2 3 2 2 2 1 2 2 5 6 7 9 10 11 12 14 15 17 18 18 19 19
12 17 16 15 14 14 13 12 12 12 12 11 9 7 6 5 4 4 4 3 3 2 3 3 2 2 1 2 1 4 4 7 8 10 10 11 13 14 16 17 17 18 18
14 16 18 16 16 15 14 13 11 11 10 11 10 9 6 6 5 4 4 3 4 3 4 3 2 1 1 1 2 4 3 6 8 9 10 11 12 13 14 15 16 17 18
13 17 18 17 16 15 15 14 11 12 11 11 10 10 7 5 5 5 4 4 4 4 4 2 2 1 1 1 2 3 4 5 7 8 9 10 11 12 14 15 16 16 17
15 17 17 17 16 16 15 14 12 12 12 11 8 10 9 6 5 5 4 4 4 4 4 1 1 1 0 1 2 3 4 5 5 8 9 10 11 12 13 14 15 16 16
17 17 17 17 16 16 15 14 13 13 13 12 10 10 10 9 6 5 5 4 4 4 5 3 1 1 1 2 2 3 3 4 3 6 8 10 11 11 12 13 14 15 16
17 17 17 16 16 16 15 15 15 14 14 13 12 11 10 7 8 6 5 5 4 4 4 4 2 1 1 2 3 3 3 3 4 5 8 9 10 11 12 12 13 14 15
15 16 16 16 16 16 15 15 15 14 13 13 12 12 11 10 9 7 6 5 4 3 3 3 2 0 1 1 3 3 4 4 4 4 6 8 9 10 11 11 12 14 15
15 15 16 16 15 15 15 14 14 13 13 11 11 11 10 10 10 9 7 6 5 4 3 2 2 1 0 1 2 3 3 3 4 4 5 7 8 8 9 10 11 13 14
15 15 14 15 15 13 13 15 14 13 12 11 10 9 8 9 9 7 6 6 6 4 3 2 2 1 1 1 2 2 3 4 4 3 5 5 5 5 5 6 8 13 14
14 14 14 14 15 11 15 17 15 13 12 11 10 9 8 9 9 9 8 8 7 6 5 3 2 2 2 1 1 2 2 3 3 3 5 5 5 5 5 5 9 13 14
13 13 14 14 14 14 18 19 17 12 11 11 10 9 7 7 9 8 8 8 6 5 4 4 3 3 2 1 1 1 2 3 4 4 5 5 5 6 6 5 10 12 14
12 12 13 13 13 13 19 20 18 13 10 10 10 10 10 10 9 10 8 7 5 4 3 2 2 2 1 1 1 1 2 3 4 2 4 4 6 7 7 6 6 11 13
11 11 11 12 12 13 19 21 19 11 9 9 9 9 10 10 13 14 10 9 7 5 6 6 6 5 6 5 3 2 2 2 3 2 3 4 5 8 7 5 5 10 12
10 10 10 11 12 12 18 21 19 9 10 8 8 8 11 12 16 15 10 9 8 6 6 6 6 6 5 5 3 2 1 1 2 2 3 4 5 6 6 5 6 7 8
Wind_Direction
164 163 161 159 160 158 159 159 158 153 152 150 148 148 146 145 139 125 112 78 51 55 62 73 76 68 52 39 29 19 10 3 358 354 350 347 344 341 339 336 334 332 330
168 168 162 162 163 164 162 166 162 159 155 157 155 155 156 152 154 152 134 121 83 54 39 33 36 38 29 13 5 360 353 348 344 341 339 338 336 334 332 330 327 325 324
171 171 167 167 167 166 166 167 160 165 159 163 166 162 165 169 175 174 165 169 141 107 60 28 24 15 2 352 344 342 340 336 334 334 334 333 332 330 328 327 325 323 323
176 173 171 172 169 168 171 169 169 171 170 176 171 167 180 181 202 190 186 190 187 169 123 64 17 360 343 334 329 328 328 329 329 329 329 329 329 327 325 324 324 324 323
180 178 177 173 171 173 175 173 179 180 177 176 176 181 195 200 197 200 200 192 188 204 208 123 36 348 336 327 322 321 321 322 322 323 324 324 323 322 322 322 322 321 321
183 182 180 180 177 177 178 179 178 182 183 175 175 194 203 204 209 207 205 198 198 209 234 241 238 201 317 321 322 320 318 318 318 319 320 322 322 322 321 321 321 320 320
185 185 182 183 184 186 185 185 180 180 181 177 186 194 196 206 213 205 211 212 204 211 233 245 258 273 255 273 313 319 320 319 318 318 319 320 320 320 320 321 321 321 321
187 188 189 187 187 188 189 187 184 185 176 189 200 199 201 190 196 210 211 219 225 215 225 238 248 257 279 281 340 329 320 316 317 317 318 319 320 320 320 321 321 321 321
191 190 193 192 191 192 191 190 190 192 185 188 206 213 216 210 172 180 204 214 220 227 227 226 240 256 274 288 300 312 320 317 316 316 317 319 320 320 320 322 322 323 324
193 194 195 195 193 195 195 194 195 196 194 189 194 224 252 277 231 185 182 199 213 230 231 220 235 241 265 282 302 328 323 316 315 316 319 320 322 322 323 324 325 325 325
194 195 196 196 196 197 197 195 194 197 198 198 193 191 203 218 242 247 227 200 201 204 221 236 235 236 250 273 294 329 320 317 317 318 320 322 324 324 325 326 326 326 325
193 197 197 198 198 197 197 195 194 198 200 201 200 197 196 200 208 219 240 245 243 205 205 222 236 234 249 274 298 329 316 317 318 320 322 323 325 324 324 325 326 326 326
192 195 194 198 198 198 195 194 194 197 200 201 202 203 208 217 211 218 236 250 254 234 207 208 217 233 254 279 302 320 308 319 321 322 323 325 325 324 324 326 327 327 328
193 192 194 197 198 195 193 193 194 196 199 201 206 205 206 211 209 211 220 232 249 241 220 208 183 207 251 277 355 313 310 322 323 324 324 326 325 325 326 327 327 328 327
190 191 192 195 196 194 192 190 195 195 196 201 204 205 205 204 206 210 215 219 237 260 255 198 191 166 264 306 344 307 310 330 324 326 327 329 329 329 328 328 329 328 327
190 189 190 192 193 193 192 192 194 196 195 199 200 200 202 200 199 199 204 212 225 242 260 236 207 171 83 317 332 312 317 320 322 331 330 330 331 330 330 330 330 329 331
191 191 190 190 190 192 192 193 195 193 196 196 195 199 200 198 194 193 194 201 211 221 245 243 204 176 244 296 312 316 319 317 328 335 329 330 331 333 333 332 332 332 333
192 190 188 188 189 190 192 194 194 194 195 196 194 195 199 193 195 194 191 197 204 208 228 243 217 210 261 302 314 318 322 322 323 336 329 330 332 331 333 333 333 335 335
191 189 187 188 188 189 190 194 194 194 196 196 193 194 195 191 195 192 190 193 195 194 209 227 225 202 274 321 311 314 316 325 325 327 324 325 328 329 331 333 335 336 334
189 188 188 188 187 187 188 189 191 192 192 192 192 192 192 192 194 189 188 189 181 176 179 195 207 208 285 334 312 316 314 325 321 324 326 325 326 326 330 333 335 336 334
188 186 185 186 185 185 187 185 185 187 186 184 185 187 187 185 186 180 174 176 173 168 167 180 187 190 223 312 313 321 314 325 320 332 324 319 318 319 326 329 334 336 334
186 184 185 185 186 186 179 178 178 180 181 180 178 176 171 171 168 161 158 158 162 167 172 172 183 203 227 262 334 324 326 327 310 344 323 315 320 319 328 330 337 334 334
184 184 184 183 186 183 173 173 172 174 176 177 175 169 162 162 163 160 152 143 140 136 151 165 174 192 203 200 215 303 322 318 308 330 324 308 321 319 327 322 327 330 333
182 182 183 183 182 177 169 170 166 172 172 173 173 169 164 162 162 157 149 144 139 132 135 137 142 143 124 112 114 353 330 320 310 318 341 305 319 322 320 309 325 330 330
180 180 181 180 179 173 168 167 163 169 164 164 164 165 162 160 157 153 147 142 133 119 104 102 97 99 98 92 82 73 24 343 322 324 357 317 317 323 312 304 319 323 324
176 172 174 178 176 172 167 165 164 164 160 155 154 157 160 158 156 156 155 150 147 143 135 122 114 110 105 100 81 62 27 336 327 309 360 329 318 332 314 308 319 320 322